Flag for U.S.A. Weather past 2 weeks in Sunrise, Florida, U.S.A.

Now
93 °F

Scattered clouds.


Feels Like: 104 °F
Forecast: 77 / 90 °F
Wind: 7 mph from North

Location: Fort Lauderdale Executive Airport

Current Time: Jul 28, 2014 at 2:47:56 PM

Latest Report: Jul 28, 2014 at 1:53 PM


Visibility: 10 mi

Pressure: 30.06 "Hg

Humidity: 56%

Dew point: 75 °F

Location of SunriseLocation

Historic Weather in Sunrise — Graph

°F

Sunrise temperature yesterday

Maximum temperature yesterday: 92 °F (at 1:53 PM)
Minimum temperature yesterday: 79 °F (at 2:53 AM)
Average temperature yesterday: 85 °F

Past Weeks' High & Low Weather Summary

 TemperatureHumidityPressure
High94 °F (Jul 18, 3:53 PM)100% (Jul 22, 6:53 AM)30.14 "Hg (Jul 22, 6:53 AM)
Low75 °F (Jul 17, 1:53 PM)49% (Jul 18, 3:53 PM)29.96 "Hg (Jul 16, 5:53 PM)
Average83 °F80%30.05 "Hg
* Reported Jul 13 1:53 PM — Jul 28 1:53 PM, Sunrise, Weather by CustomWeather, © 2014

Note: Actual official high and low records may vary slightly from our data, if they occured in-between our weather recording intervals... More about our weather records

Advertising

Sunrise weather history for previous 24 hours

 ConditionsComfort  
Time TempWeatherWind HumidityBarometerVisibility
1:53 PM
Jul 28
93 °FScattered clouds.7 mph56%30.06 "Hg10 mi
12:53 PM93 °FScattered clouds.8 mph52%30.08 "Hg10 mi
11:53 AM91 °FPassing clouds.9 mph57%30.08 "Hg10 mi
10:53 AM89 °FScattered clouds.5 mph63%30.09 "Hg10 mi
9:53 AM87 °FSunny.6 mph67%30.09 "Hg10 mi
8:53 AM85 °FSunny.8 mph75%30.09 "Hg10 mi
7:53 AM83 °FScattered clouds.7 mph85%30.09 "Hg10 mi
6:53 AM81 °FPassing clouds.No wind91%30.07 "Hg10 mi
5:53 AM81 °FClear.3 mph88%30.06 "Hg10 mi
4:53 AM83 °FPassing clouds.No wind85%30.05 "Hg10 mi
3:53 AM82 °FPassing clouds.3 mph88%30.06 "Hg10 mi
2:53 AM82 °FPassing clouds.3 mph85%30.06 "Hg10 mi
1:53 AM82 °FPassing clouds.No wind88%30.09 "Hg10 mi
12:53 AM83 °FClear.3 mph82%30.09 "Hg10 mi
11:53 PM
Jul 27
83 °FClear.5 mph82%30.10 "Hg10 mi
10:53 PM83 °FPassing clouds.3 mph79%30.09 "Hg10 mi
9:53 PM85 °FClear.6 mph72%30.08 "Hg10 mi
8:53 PM85 °FSunny.7 mph70%30.07 "Hg10 mi
7:53 PM86 °FScattered clouds.8 mph70%30.08 "Hg10 mi
6:53 PM88 °FSunny.10 mph63%30.07 "Hg10 mi
5:53 PM90 °FScattered clouds.10 mph59%30.06 "Hg10 mi
4:53 PM91 °FScattered clouds.10 mph60%30.05 "Hg10 mi
3:53 PM92 °FScattered clouds.10 mph56%30.06 "Hg10 mi
2:53 PM92 °FScattered clouds.10 mph54%30.08 "Hg10 mi
Weather by CustomWeather, © 2014

See weather overviewHow to use our weather pages